Showing default

KINEIS-3C, 61220

Orbit data source: Space-Track

KINEIS-3C, 61220 is a French payload satellite in SSO that was launched on Fri, 20 Sep 2024 UTC via an ELECTRON launch vehicle from the Rocket Lab Launch Complex (RLLC). Payload-class satellites include a variety of spacecraft equipped with specific instruments for various scientific and technological missions. These include communications satellites like Starlink; space stations such as the ISS; scientific satellites like the Hubble; Earth observation satellites from companies like Planet Labs, Umbra, and HawkEye 360; GPS; miniature CubeSats for education and research; and military/defense satellites.

Loading next visibility...
Identifier
61220, 2024-172A
Orbit
SSO
Country
Flag of FRFR
Related business
Manufacturer
KINEIS
Mission
Operational Commercial Communications
Bus & Motor
CUBESAT 16U, Unknown motor
Mass
28 kg wet, 28 kg dry
Launch date (UTC)
2024-09-20 (2 years ago)
Launch vehicle
ELECTRON
Launch site
Rocket Lab Launch Complex (RLLC)
Object type
Payload
Rocket body
Debris
Shape & HBR
Box + 2 Pan + 1 Ant, 1.0 m
Radar Cross Section
0.229 m², Medium (>0.1 m² and < 1m²)

Expand to show TLE details & history
Last TLE update: 16 hours ago

TLE from 16 hours ago
0 KINEIS-3C
1 61220U 24172A   26171.19890038  .00001423  00000-0  23314-3 0  9998
2 61220  98.0432 261.0653 0002653 121.5331 238.6136 14.72286308 93512
Epoch: 2026-06-20T04:46Z
TLE epoch observation values (Epoch: 2026-06-20T04:46:24.992Z)
Latitude
-0.00001°
Longitude
-78.95579°
Altitude
657.758 km
Speed
7.528 km/s
True Right ascension
17h 24m 15s
True Declination
0° 00' 00"
Sunlit
Object was in full shadow at epoch
Visualization orbit readout
Latitude
Unknown
Longitude
Unknown
Altitude
Unknown
Speed
Unknown
Apparent Right ascension
Unknown
Apparent Declination
Unknown
Sunlit
N/A
Visualization observer readout
Local Sidereal Time
07:17:31
Azimuth
Unknown
Elevation
Unknown
Doppler factor
Unknown
Orbital elements
Apogee altitude
652.701 km
Perigee altitude
648.972 km
Semi-major axis
7,028.973 km
Eccentricity
0.00027
Inclination
98.0432°
RAAN
261.0653°
Arg. of periapsis
121.5331°
True anomaly
238.58765°
Mean anomaly
238.6136°
Eccentric anomaly
238.60063°
Mean motion
3.68303 °/min
Orbital period
97.75 mins
BSTAR
0.00023314
Loading maneuver chart data...
Computing Atmospheric mass density...
Loading historical data...
Loading historical data...
Loading historical data...
Loading historical data...
Loading historical data...
Loading historical data...
Loading historical data...

Documentation

Showing up to 5 results
|